Regional Weather Roundup
Issued by NWS

Home | Current Version | Previous Version | Text Only | Print | Product List | Glossary Off
Versions: 1 2 3 4 5 6 7 8 9 10 11 12 13 14 15 16 17 18 19 20 21 22 23 24 25 26 27 28 29 30 31 32 33 34 35 36 37 38 39 40 41 42 43 44 45 46 47 48 49 50

893
ASUS45 KCYS 251810
RWRWY

WYOMING REGIONAL WEATHER ROUNDUP
NATIONAL WEATHER SERVICE CHEYENNE WY
1200 PM MDT FRI MAY 25 2018

NOTE:  "FAIR" INDICATES FEW OR NO CLOUDS BELOW 12,000 FEET
WITH NO SIGNIFICANT WEATHER AND/OR OBSTRUCTIONS TO VISIBILITY.

WYZ001-251900-
YELLOWSTONE NATIONAL PARK

CITY           SKY/WX    TMP DP  RH WIND       PRES   REMARKS
LK YELLOWSTONE   N/A     52  43  71 VRB3      30.24F
6HR MIN TEMP:  31; 6HR MAX TEMP:  54;

W YELLOWSTONE  NOT AVBL

$$
WYZ002>013-054>058-071-098>099-251900-
NORTHERN WYOMING

CITY           SKY/WX    TMP DP  RH WIND       PRES   REMARKS
JACKSON        FAIR      59  48  67 SE5       30.17F
CODY           FAIR      72  48  42 SE14      30.04F
GREYBULL       FAIR      77  49  37 SE7       29.99F
6HR MIN TEMP:  53; 6HR MAX TEMP:  77;

WORLAND        FAIR      76  46  34 VRB3      30.00F
6HR MIN TEMP:  51; 6HR MAX TEMP:  76;

SHERIDAN       FAIR      76  51  41 W6        29.99F
6HR MIN TEMP:  52; 6HR MAX TEMP:  77;

BUFFALO        FAIR      75  49  39 VRB7      30.04F
6HR MIN TEMP:  54; 6HR MAX TEMP:  75;

GILLETTE       FAIR      76  47  35 VRB5      30.01F
6HR MIN TEMP:  55; 6HR MAX TEMP:  77;

NEWCASTLE      FAIR      75  41  29 NW7       30.02S

$$
WYZ014>020-022>026-101>103-251900-
CENTRAL WYOMING

CITY           SKY/WX    TMP DP  RH WIND       PRES   REMARKS
BIG PINEY      FAIR      67  37  33 VRB5      30.19F
6HR MIN TEMP:  37; 6HR MAX TEMP:  67;

PINEDALE       FAIR      68  36  30 SW9       30.20F
DUBOIS         FAIR      64  34  32 SW7       30.16F
LANDER         FAIR      70  50  49 VRB5      30.09R
6HR MIN TEMP:  47; 6HR MAX TEMP:  71;

RIVERTON       FAIR      71  44  37 VRB5      30.08F
6HR MIN TEMP:  51; 6HR MAX TEMP:  73;

CASPER         FAIR      74  46  36 W5        30.08F
6HR MIN TEMP:  48; 6HR MAX TEMP:  74;

DOUGLAS        FAIR      76  49  38 NW8       30.06F
6HR MIN TEMP:  47; 6HR MAX TEMP:  76;


$$
WYZ021-027>030-104>119-251900-
SOUTHERN WYOMING

CITY           SKY/WX    TMP DP  RH WIND       PRES   REMARKS
EVANSTON       FAIR      70  39  32 CALM      30.15F
6HR MIN TEMP:  49; 6HR MAX TEMP:  70;

FORT BRIDGER   FAIR      71  41  33 NE8       30.19F
ROCK SPRINGS   FAIR      73  33  23 VRB6      30.15F
6HR MIN TEMP:  47; 6HR MAX TEMP:  74;

DIXON          FAIR      77  25  14 SW8       30.18F
RAWLINS        FAIR      76  37  24 VRB3      30.16F
6HR MIN TEMP:  39; 6HR MAX TEMP:  76;

SARATOGA       FAIR      77  25  14 SW13G22   30.18F
LARAMIE        FAIR      74  29  19 W7G25     30.18F
6HR MIN TEMP:  40; 6HR MAX TEMP:  77;

CHEYENNE       FAIR      78  40  25 MISG      30.12F
6HR MIN TEMP:  51; 6HR MAX TEMP:  78;

TORRINGTON     FAIR      81  51  35 W9        30.00F
6HR MIN TEMP:  52; 6HR MAX TEMP:  81;

PINE BLUFFS    FAIR      79  45  29 SW7       30.08F

$$




USA.gov is the U.S. government's official web portal to all federal, state and local government web resources and services.